FW8640 Weather Reports


time (UTC)temp
C
wind
direction
speed
KPH
gust
KPH
rain 1hr
cm
rain 24hr
cm
rain mn
cm
humidity
%
barometer
mb
20260507194020 18 0.0 0.0 0.00 0.00 0.00 74 1018.6
20260507193020 18 0.0 0.0 0.00 0.00 0.00 73 1018.5
20260507192018 18 0.0 0.0 0.00 0.00 0.00 73 1018.5
20260507191018 18 0.0 0.0 0.00 0.00 0.00 72 1018.6
20260507190018 18 0.0 0.0 0.00 0.00 0.00 72 1018.5
20260507185018 18 0.0 0.0 0.00 0.00 0.00 72 1018.5
20260507184018 18 0.0 0.0 0.00 0.00 0.00 71 1018.4
20260507183018 19 0.0 0.0 0.00 0.00 0.00 70 1018.5
20260507182018 19 0.0 0.0 0.00 0.00 0.00 70 1018.4
20260507181020 19 0.0 0.0 0.00 0.00 0.00 69 1018.3
20260507180018 20 0.0 0.0 0.00 0.00 0.00 68 1018.1
20260507175041 20 0.0 0.0 0.00 0.00 0.00 67 1018.3
20260507174021 20 0.0 1.6 0.00 0.00 0.00 68 1018.3
20260507173018 20 0.0 0.0 0.00 0.00 0.00 67 1017.7
20260507172041 20 0.0 0.0 0.00 0.00 0.00 67 1017.5
20260507171017 20 0.0 0.0 0.00 0.00 0.00 66 1017.8
20260507170039 20 0.0 0.0 0.00 0.00 0.00 65 1018.1
20260507165041 20 0.0 0.0 0.00 0.00 0.00 66 1018.3
20260507164018 20 0.0 0.0 0.00 0.00 0.00 65 1018.4
20260507163018 20 0.0 0.0 0.00 0.00 0.00 65 1018.3
20260507162018 20 0.0 1.6 0.00 0.00 0.00 64 1018.4
20260507161102 20 225 1.6 8.0 0.00 0.00 0.00 63 1018.5
20260507160019 20 0.0 0.0 0.00 0.00 0.00 63 1018.2
20260507155017 20 0.0 0.0 0.00 0.00 0.00 64 1018.2
20260507154104 20 0.0 0.0 0.00 0.00 0.00 66 1018.3
20260507153018 20 0.0 0.0 0.00 0.00 0.00 67 1018.5
20260507152019 20 0.0 1.6 0.00 0.00 0.00 66 1018.6
20260507151019 21 0.0 4.8 0.00 0.00 0.00 64 1018.5
20260507150019 21 0.0 4.8 0.00 0.00 0.00 60 1018.4
20260507145102 21 0.0 0.0 0.00 0.00 0.00 59 1018.4
20260507144019 21 0.0 4.8 0.00 0.00 0.00 60 1018.6
20260507143018 21 0.0 3.2 0.00 0.00 0.00 59 1018.5
20260507142019 22 225 3.2 8.0 0.00 0.00 0.00 58 1018.5
20260507141018 22 0.0 6.4 0.00 0.00 0.00 58 1018.3
20260507140019 22 225 1.6 6.4 0.00 0.00 0.00 59 1018.2
20260507135018 21 0.0 0.0 0.00 0.00 0.00 61 1018.2
20260507134019 21 0.0 0.0 0.00 0.00 0.00 64 1018.2
20260507133017 21 0.0 0.0 0.00 0.00 0.00 67 1018.3
20260507132017 20 0.0 0.0 0.00 0.00 0.00 67 1018.4
20260507131020 21 225 1.6 4.8 0.00 0.00 0.00 68 1018.6
20260507130017 21 225 1.6 8.0 0.00 0.00 0.00 67 1018.6
20260507125019 21 0.0 4.8 0.00 0.00 0.00 64 1018.6
20260507124017 21 0.0 0.0 0.00 0.00 0.00 66 1018.5
20260507123017 20 0.0 0.0 0.00 0.00 0.00 67 1019.0
20260507122040 20 0.0 3.2 0.00 0.00 0.00 69 1019.5
20260507121019 20 0.0 0.0 0.00 0.00 0.00 70 1019.5
20260507120017 20 0.0 3.2 0.00 0.00 0.00 70 1019.6
20260507115017 20 0.0 3.2 0.00 0.00 0.00 70 1019.8
20260507114019 20 0.0 3.2 0.00 0.00 0.00 71 1020.0
20260507113018 20 0.0 0.0 0.00 0.00 0.00 72 1020.1
20260507112042 20 0.0 0.0 0.00 0.00 0.00 73 1020.2
20260507111020 20 0.0 0.0 0.00 0.00 0.00 72 1020.3
20260507110019 20 0.0 0.0 0.00 0.00 0.00 70 1020.1
20260507105044 20 0.0 0.0 0.00 0.00 0.00 70 1020.1
20260507104019 20 0.0 0.0 0.00 0.00 0.00 69 1020.1
20260507103020 20 0.0 0.0 0.00 0.00 0.00 68 1020.3
20260507102019 20 0.0 0.0 0.00 0.00 0.00 67 1020.3
20260507101019 20 0.0 1.6 0.00 0.00 0.00 67 1020.3
20260507100019 20 0.0 3.2 0.00 0.00 0.00 68 1020.1
20260507095020 20 225 1.6 6.4 0.00 0.00 0.00 67 1020.1
20260507094040 20 225 1.6 8.0 0.00 0.00 0.00 64 1020.0
20260507093019 20 0.0 0.0 0.00 0.00 0.00 63 1019.8
20260507092021 20 0.0 0.0 0.00 0.00 0.00 65 1019.5
20260507091021 20 0.0 0.0 0.00 0.00 0.00 66 1019.3
20260507090044 20 0.0 0.0 0.00 0.00 0.00 67 1019.3
20260507085021 20 0.0 0.0 0.00 0.00 0.00 68 1019.3
20260507084019 20 0.0 0.0 0.00 0.00 0.00 69 1019.1
20260507083019 19 0.0 0.0 0.00 0.00 0.00 70 1019.1
20260507082018 19 0.0 0.0 0.00 0.00 0.00 70 1019.0
20260507081019 19 0.0 0.0 0.00 0.00 0.00 70 1018.9
20260507080042 20 0.0 0.0 0.00 0.00 0.00 69 1018.8
20260507075019 20 0.0 0.0 0.00 0.00 0.00 69 1018.5
20260507074042 20 0.0 0.0 0.00 0.00 0.00 69 1018.4
20260507073042 20 0.0 0.0 0.00 0.00 0.00 70 1018.2
20260507072019 20 0.0 0.0 0.00 0.00 0.00 70 1018.2
20260507071020 19 0.0 0.0 0.00 0.00 0.00 71 1018.2
20260507070019 19 0.0 0.0 0.00 0.00 0.00 73 1018.1
20260507065022 18 0.0 0.0 0.00 0.00 0.00 73 1018.3
20260507064040 18 0.0 0.0 0.00 0.00 0.00 74 1018.4
20260507063018 18 0.0 0.0 0.00 0.00 0.00 74 1018.3
20260507062018 18 0.0 0.0 0.00 0.00 0.00 75 1018.4
20260507061019 18 0.0 0.0 0.00 0.00 0.00 75 1018.2
20260507060018 18 0.0 6.4 0.00 0.00 0.00 74 1018.1
20260507055021 18 0.0 0.0 0.00 0.00 0.00 75 1017.9
20260507054018 18 0.0 0.0 0.00 0.00 0.00 75 1017.9
20260507053019 18 0.0 0.0 0.00 0.00 0.00 77 1017.9
20260507052018 18 0.0 0.0 0.00 0.00 0.00 79 1017.7
20260507051042 17 0.0 0.0 0.00 0.00 0.00 80 1017.7
20260507050021 17 0.0 0.0 0.00 0.00 0.00 81 1017.7
20260507045019 16 0.0 0.0 0.00 0.00 0.00 82 1017.6
20260507044022 16 0.0 0.0 0.00 0.00 0.00 81 1017.6
20260507043019 15 0.0 0.0 0.00 0.00 0.00 81 1017.6
20260507042020 15 0.0 0.0 0.00 0.00 0.00 81 1017.6
20260507041041 15 0.0 0.0 0.00 0.00 0.00 81 1017.5
20260507040018 15 0.0 0.0 0.00 0.00 0.00 80 1017.5
20260507035103 15 0.0 0.0 0.00 0.00 0.00 79 1017.4
20260507034018 15 0.0 0.0 0.00 0.00 0.00 79 1017.3
20260507033020 15 0.0 0.0 0.00 0.00 0.00 79 1017.2
20260507032019 15 0.0 0.0 0.00 0.00 0.00 79 1017.2
20260507031040 15 0.0 0.0 0.00 0.00 0.00 79 1017.2
20260507030019 15 0.0 0.0 0.00 0.00 0.00 78 1017.1
20260507025018 15 0.0 0.0 0.00 0.00 0.00 79 1017.0
20260507024019 15 0.0 0.0 0.00 0.00 0.00 79 1016.9
20260507023020 15 0.0 0.0 0.00 0.00 0.00 79 1016.7
20260507022020 15 0.0 0.0 0.00 0.00 0.00 79 1016.5
20260507021019 15 0.0 0.0 0.00 0.00 0.00 79 1016.7
20260507020020 15 0.0 0.0 0.00 0.00 0.00 79 1016.7
20260507015020 15 0.0 0.0 0.00 0.00 0.00 78 1016.7
20260507014018 15 0.0 0.0 0.00 0.00 0.00 78 1016.6
20260507013018 15 0.0 0.0 0.00 0.00 0.00 77 1016.7
20260507012018 16 0.0 0.0 0.00 0.00 0.00 76 1016.7
20260507011021 16 0.0 0.0 0.00 0.00 0.00 76 1016.7
20260507010018 16 0.0 0.0 0.00 0.00 0.00 75 1016.6
20260507005020 17 0.0 0.0 0.00 0.00 0.00 75 1016.5
20260507004018 17 0.0 0.0 0.00 0.00 0.00 76 1016.3
20260507003018 17 0.0 6.4 0.00 0.00 0.00 77 1016.3
20260507002040 16 0.0 0.0 0.00 0.00 0.00 78 1016.3
20260507001018 16 0.0 0.0 0.00 0.00 0.00 77 1016.3
20260507000019 16 0.0 0.0 0.00 0.00 0.00 77 1016.4
20260506235103 16 0.0 0.0 0.00 0.00 0.00 77 1016.7
20260506234018 16 0.0 0.0 0.00 0.00 0.00 78 1016.8
20260506233019 16 0.0 0.0 0.00 0.00 0.00 78 1016.9
20260506232018 16 0.0 0.0 0.00 0.00 0.00 76 1016.8
20260506231017 16 0.0 0.0 0.00 0.00 0.00 76 1016.8
20260506230019 16 0.0 0.0 0.00 0.00 0.00 76 1016.9
20260506225018 16 0.0 0.0 0.00 0.00 0.00 77 1016.9
20260506224019 16 0.0 0.0 0.00 0.00 0.00 77 1016.9
20260506223018 16 0.0 0.0 0.00 0.00 0.00 77 1016.9
20260506222017 16 0.0 0.0 0.00 0.00 0.00 77 1017.0
20260506221017 17 0.0 0.0 0.00 0.00 0.00 78 1017.0
20260506220018 17 0.0 0.0 0.00 0.00 0.00 79 1016.9
20260506215039 17 0.0 0.0 0.00 0.00 0.00 79 1017.0
20260506214019 17 0.0 0.0 0.00 0.00 0.00 79 1017.0
20260506213042 17 0.0 3.2 0.00 0.00 0.00 79 1017.0
20260506212017 17 0.0 0.0 0.00 0.00 0.00 79 1017.1
20260506211017 17 0.0 0.0 0.00 0.00 0.00 79 1017.1
20260506210019 17 0.0 4.8 0.00 0.00 0.00 79 1017.1
20260506205018 17 225 1.6 9.7 0.00 0.00 0.00 79 1017.3
20260506204018 18 0.0 3.2 0.00 0.00 0.00 80 1017.1
20260506203019 18 0.0 8.0 0.00 0.00 0.00 81 1016.9
20260506202103 18 0.0 0.0 0.00 0.00 0.00 81 1016.9
20260506201041 18 0.0 1.6 0.00 0.00 0.00 81 1016.7
20260506200018 18 0.0 3.2 0.00 0.00 0.00 81 1016.7
20260506195018 18 225 3.2 9.7 0.00 0.00 0.00 81 1016.7